Time,TemperatureF,DewpointF,PressureIn,WindDirection,WindDirectionDegrees,WindSpeedMPH,WindSpeedGustMPH,Humidity,HourlyPrecipIn,Conditions,Clouds,dailyrainin,SoftwareType,DateUTC
2013-03-18 00:00:00,41.0,39.9,30.00,ESE,112,8.0,23.0,96,0.03,,,0.00,Weather View 32 v70,2013-03-18 04:00:00,
2013-03-18 00:15:00,41.0,39.9,29.99,SSE,157,6.0,23.0,96,0.03,,,0.01,Weather View 32 v70,2013-03-18 04:15:00,
2013-03-18 00:30:00,41.0,39.1,29.98,East,90,15.0,26.0,93,0.03,,,0.02,Weather View 32 v70,2013-03-18 04:30:00,
2013-03-18 00:45:00,41.0,39.1,29.98,SE,135,9.0,26.0,93,0.03,,,0.02,Weather View 32 v70,2013-03-18 04:45:00,
2013-03-18 00:50:00,41.0,39.1,29.98,SE,135,9.0,26.0,93,0.03,,,0.02,Weather View 32 v70,2013-03-18 04:50:00,
2013-03-18 01:00:00,41.0,39.4,29.97,South,180,9.0,26.0,94,0.03,,,0.03,Weather View 32 v70,2013-03-18 05:00:00,
2013-03-18 01:15:00,41.0,39.4,29.97,NE,45,6.0,26.0,94,0.03,,,0.04,Weather View 32 v70,2013-03-18 05:15:00,
2013-03-18 01:30:00,40.0,38.1,29.98,SSE,157,8.0,25.0,93,0.02,,,0.04,Weather View 32 v70,2013-03-18 05:30:00,
2013-03-18 01:45:00,40.0,38.1,29.97,SE,135,14.0,25.0,93,0.04,,,0.06,Weather View 32 v70,2013-03-18 05:45:00,
2013-03-18 01:51:00,40.0,38.1,29.97,SE,135,14.0,25.0,93,0.04,,,0.06,Weather View 32 v70,2013-03-18 05:51:00,
2013-03-18 02:00:00,40.0,38.1,29.98,SSE,157,8.0,25.0,93,0.04,,,0.07,Weather View 32 v70,2013-03-18 06:00:00,
2013-03-18 02:15:00,40.0,38.1,29.98,ESE,112,12.0,25.0,93,0.04,,,0.08,Weather View 32 v70,2013-03-18 06:15:00,
2013-03-18 02:30:00,39.0,37.4,29.96,SE,135,11.0,23.0,94,0.05,,,0.09,Weather View 32 v70,2013-03-18 06:30:00,
2013-03-18 02:45:00,40.0,38.1,29.97,SSW,202,9.0,23.0,93,0.03,,,0.09,Weather View 32 v70,2013-03-18 06:45:00,
2013-03-18 02:51:00,40.0,38.1,29.97,SSW,202,9.0,23.0,93,0.03,,,0.09,Weather View 32 v70,2013-03-18 06:51:00,
2013-03-18 03:00:00,40.0,37.6,29.98,SSE,157,4.0,23.0,91,0.02,,,0.09,Weather View 32 v70,2013-03-18 07:00:00,
2013-03-18 03:15:00,40.0,37.3,29.97,SW,225,19.0,23.0,90,0.01,,,0.09,Weather View 32 v70,2013-03-18 07:15:00,
2013-03-18 03:30:00,40.0,37.3,29.97,ESE,112,9.0,24.0,90,0.00,,,0.09,Weather View 32 v70,2013-03-18 07:30:00,
2013-03-18 03:45:00,39.0,36.0,29.96,West,270,5.0,24.0,89,0.00,,,0.09,Weather View 32 v70,2013-03-18 07:45:00,
2013-03-18 03:52:00,39.0,36.0,29.96,West,270,5.0,24.0,89,0.00,,,0.09,Weather View 32 v70,2013-03-18 07:52:00,
2013-03-18 04:00:00,39.0,35.7,29.96,SE,135,8.0,26.0,88,0.00,,,0.09,Weather View 32 v70,2013-03-18 08:00:00,
2013-03-18 04:15:00,39.0,35.7,29.97,SSE,157,5.0,26.0,88,0.00,,,0.09,Weather View 32 v70,2013-03-18 08:15:00,
2013-03-18 04:30:00,39.0,35.5,29.96,SSE,157,5.0,26.0,87,0.00,,,0.09,Weather View 32 v70,2013-03-18 08:30:00,
2013-03-18 04:45:00,39.0,35.5,29.96,SSE,157,8.0,26.0,87,0.00,,,0.09,Weather View 32 v70,2013-03-18 08:45:00,
2013-03-18 04:52:00,39.0,35.5,29.96,SSE,157,8.0,26.0,87,0.00,,,0.09,Weather View 32 v70,2013-03-18 08:52:00,
2013-03-18 05:00:00,39.0,35.5,29.95,East,90,16.0,28.0,87,0.00,,,0.09,Weather View 32 v70,2013-03-18 09:00:00,
2013-03-18 05:15:00,39.0,35.7,29.95,SSE,157,12.0,28.0,88,0.01,,,0.10,Weather View 32 v70,2013-03-18 09:15:00,
2013-03-18 05:30:00,39.0,35.5,29.95,SSE,157,5.0,28.0,87,0.01,,,0.10,Weather View 32 v70,2013-03-18 09:30:00,
2013-03-18 05:45:00,39.0,35.5,29.94,SSE,157,12.0,28.0,87,0.01,,,0.10,Weather View 32 v70,2013-03-18 09:45:00,
2013-03-18 05:53:00,39.0,35.5,29.94,SSE,157,12.0,28.0,87,0.01,,,0.10,Weather View 32 v70,2013-03-18 09:53:00,
2013-03-18 06:00:00,39.0,35.2,29.94,SE,135,20.0,30.0,86,0.01,,,0.10,Weather View 32 v70,2013-03-18 10:00:00,
2013-03-18 06:15:00,39.0,35.2,29.92,SE,135,13.0,30.0,86,0.00,,,0.10,Weather View 32 v70,2013-03-18 10:15:00,
2013-03-18 06:30:00,38.0,34.5,29.93,East,90,12.0,30.0,87,0.00,,,0.10,Weather View 32 v70,2013-03-18 10:30:00,
2013-03-18 06:45:00,38.0,34.5,29.91,South,180,15.0,31.0,87,0.00,,,0.10,Weather View 32 v70,2013-03-18 10:45:00,
2013-03-18 06:53:00,38.0,34.5,29.91,South,180,15.0,31.0,87,0.00,,,0.10,Weather View 32 v70,2013-03-18 10:53:00,
2013-03-18 08:45:00,39.0,34.6,29.89,West,270,9.0,27.0,84,0.00,,,0.11,Weather View 32 v70,2013-03-18 12:45:00,
2013-03-18 10:30:00,40.0,34.3,29.86,SSW,202,5.0,20.0,80,0.00,,,0.11,Weather View 32 v70,2013-03-18 14:30:00,
2013-03-18 10:45:00,41.0,34.7,29.85,ESE,112,9.0,28.0,78,0.00,,,0.11,Weather View 32 v70,2013-03-18 14:45:00,
2013-03-18 11:00:00,42.0,35.6,29.86,ESE,112,7.0,28.0,78,0.00,,,0.11,Weather View 32 v70,2013-03-18 15:00:00,
2013-03-18 11:15:00,42.0,37.2,29.92,South,180,6.0,28.0,83,0.00,,,0.11,Weather View 32 v70,2013-03-18 15:15:00,
2013-03-18 11:24:00,42.0,37.2,29.92,South,180,6.0,28.0,83,0.00,,,0.11,Weather View 32 v70,2013-03-18 15:24:00,
2013-03-18 12:00:00,41.0,37.1,29.94,SE,135,2.0,19.0,86,0.00,,,0.11,Weather View 32 v70,2013-03-18 16:00:00,
2013-03-18 15:45:00,42.0,40.9,29.87,SE,135,1.0,13.0,96,0.02,,,0.21,Weather View 32 v70,2013-03-18 19:45:00,
2013-03-18 16:00:00,42.0,40.7,29.87,WNW,292,4.0,14.0,95,0.02,,,0.21,Weather View 32 v70,2013-03-18 20:00:00,
2013-03-18 16:15:00,42.0,40.7,29.86,West,270,8.0,14.0,95,0.02,,,0.22,Weather View 32 v70,2013-03-18 20:15:00,
2013-03-18 16:30:00,42.0,40.9,29.85,NW,315,4.0,14.0,96,0.02,,,0.23,Weather View 32 v70,2013-03-18 20:30:00,
2013-03-18 16:45:00,42.0,40.9,29.83,SSW,202,9.0,14.0,96,0.04,,,0.25,Weather View 32 v70,2013-03-18 20:45:00,
2013-03-18 17:00:00,43.0,41.9,29.79,NNW,337,2.0,15.0,96,0.05,,,0.26,Weather View 32 v70,2013-03-18 21:00:00,
2013-03-18 17:15:00,43.0,41.9,29.79,NE,45,4.0,16.0,96,0.04,,,0.26,Weather View 32 v70,2013-03-18 21:15:00,
2013-03-18 17:30:00,43.0,41.7,29.79,SSW,202,1.0,16.0,95,0.03,,,0.26,Weather View 32 v70,2013-03-18 21:30:00,
2013-03-18 17:45:00,43.0,41.1,29.78,NNW,337,5.0,16.0,93,0.01,,,0.26,Weather View 32 v70,2013-03-18 21:45:00,
2013-03-18 18:00:00,45.0,43.4,29.77,NW,315,4.0,16.0,94,0.00,,,0.26,Weather View 32 v70,2013-03-18 22:00:00,
2013-03-18 18:15:00,46.0,43.5,29.74,SE,135,7.0,26.0,91,0.00,,,0.26,Weather View 32 v70,2013-03-18 22:15:00,
2013-03-18 18:30:00,47.0,44.8,29.73,South,180,1.0,26.0,92,0.00,,,0.26,Weather View 32 v70,2013-03-18 22:30:00,
2013-03-18 18:45:00,47.0,44.5,29.74,East,90,1.0,26.0,91,0.00,,,0.26,Weather View 32 v70,2013-03-18 22:45:00,
2013-03-18 19:00:00,47.0,44.5,29.71,NE,45,5.0,26.0,91,0.00,,,0.26,Weather View 32 v70,2013-03-18 23:00:00,
2013-03-18 19:15:00,47.0,44.2,29.75,SW,225,5.0,18.0,90,0.00,,,0.26,Weather View 32 v70,2013-03-18 23:15:00,
2013-03-18 19:30:00,47.0,44.2,29.76,ESE,112,2.0,18.0,90,0.00,,,0.26,Weather View 32 v70,2013-03-18 23:30:00,
2013-03-18 19:45:00,48.0,45.2,29.77,NE,45,1.0,15.0,90,0.00,,,0.26,Weather View 32 v70,2013-03-18 23:45:00,
2013-03-18 20:00:00,47.0,44.2,29.76,WSW,247,4.0,14.0,90,0.00,,,0.26,Weather View 32 v70,2013-03-19 00:00:00,
2013-03-18 20:15:00,48.0,44.9,29.77,SW,225,6.0,14.0,89,0.00,,,0.26,Weather View 32 v70,2013-03-19 00:15:00,
2013-03-18 20:30:00,48.0,44.9,29.77,SW,225,3.0,14.0,89,0.00,,,0.26,Weather View 32 v70,2013-03-19 00:30:00,
2013-03-18 20:45:00,48.0,44.6,29.77,SE,135,4.0,13.0,88,0.00,,,0.26,Weather View 32 v70,2013-03-19 00:45:00,
2013-03-18 21:00:00,48.0,44.0,29.76,SW,225,8.0,15.0,86,0.00,,,0.26,Weather View 32 v70,2013-03-19 01:00:00,
2013-03-18 21:15:00,49.0,44.7,29.76,SW,225,7.0,15.0,85,0.00,,,0.26,Weather View 32 v70,2013-03-19 01:15:00,
2013-03-18 21:30:00,49.0,44.4,29.76,WSW,247,5.0,17.0,84,0.00,,,0.26,Weather View 32 v70,2013-03-19 01:30:00,
2013-03-18 21:45:00,50.0,45.0,29.75,SSW,202,9.0,17.0,83,0.00,,,0.26,Weather View 32 v70,2013-03-19 01:45:00,
2013-03-18 22:00:00,50.0,45.3,29.75,SW,225,1.0,17.0,84,0.00,,,0.26,Weather View 32 v70,2013-03-19 02:00:00,
2013-03-18 22:15:00,50.0,45.3,29.76,SW,225,5.0,17.0,84,0.00,,,0.26,Weather View 32 v70,2013-03-19 02:15:00,
2013-03-18 22:30:00,50.0,45.3,29.76,SSW,202,2.0,17.0,84,0.00,,,0.26,Weather View 32 v70,2013-03-19 02:30:00,
2013-03-18 22:45:00,50.0,45.3,29.76,SW,225,7.0,17.0,84,0.00,,,0.26,Weather View 32 v70,2013-03-19 02:45:00,
2013-03-18 23:00:00,50.0,45.7,29.76,SW,225,5.0,14.0,85,0.00,,,0.26,Weather View 32 v70,2013-03-19 03:00:00,
2013-03-18 23:15:00,50.0,45.7,29.76,South,180,4.0,15.0,85,0.00,,,0.26,Weather View 32 v70,2013-03-19 03:15:00,
2013-03-18 23:30:00,50.0,46.0,29.76,South,180,3.0,15.0,86,0.00,,,0.26,Weather View 32 v70,2013-03-19 03:30:00,
2013-03-18 23:45:00,50.0,46.0,29.76,SSW,202,1.0,15.0,86,0.00,,,0.26,Weather View 32 v70,2013-03-19 03:45:00,